Regional Weather Roundup
Issued by NWS

Home | Current Version | Previous Version | Graphics & Text | Print | Product List | Glossary Off
Versions: 1 2 3 4 5 6 7 8 9 10 11 12 13 14 15 16 17 18 19 20 21 22 23 24 25 26 27 28 29 30 31 32 33 34 35 36 37 38 39 40 41 42 43 44 45 46 47 48 49 50

000
ASUS43 KTOP 231908
RWRKS

WEATHER ROUNDUP FOR KANSAS
NATIONAL WEATHER SERVICE GOODLAND KS
200 PM CDT TUE SEP 23 2014

NOTE:  "FAIR" INDICATES FEW OR NO CLOUDS BELOW 12,000 FEET WITH NO
SIGNIFICANT WEATHER AND/OR OBSTRUCTIONS TO VISIBILITY.

KSZ001>006-013>018-027>032-041>047-232000-
NORTHWEST KANSAS

CITY           SKY/WX    TMP DP  RH WIND       PRES   REMARKS
GOODLAND       SUNNY     82  53  36 N8        30.05F
HILL CITY      SUNNY     81  60  48 S7G16     30.01F
RUSSELL        SUNNY     73  58  59 SE18G24   30.04F
$$

KSZ061>065-074>080-084>089-232000-
SOUTHWEST KANSAS

CITY           SKY/WX    TMP DP  RH WIND       PRES   REMARKS
DODGE CITY     MOSUNNY   85  56  37 S18G30    30.03F
ELKHART          N/A     87  59  38 W8          N/A
GARDEN CITY    MOSUNNY   87  59  38 SW15G21   30.00F
GREAT BEND     PTSUNNY   79  55  44 S20G28    30.05F
LIBERAL        MOSUNNY   88  59  37 SW24G31   30.04F
PRATT          MOSUNNY   81  50  34 S23G32    30.08F
$$

KSZ066>073-081>083-090>101-232000-
SOUTHEAST KANSAS

CITY           SKY/WX    TMP DP  RH WIND       PRES   REMARKS
CHANUTE        MOSUNNY   74  55  51 S16G23    30.20F
COFFEYVILLE    SUNNY     76  56  49 S10G18    30.19F
HUTCHINSON     MOSUNNY   79  51  37 S23G35    30.09F
MEDICINE LODGE   N/A     81  52  36 S20G29    30.07F
NEWTON         PTSUNNY   79  52  38 S22       30.14F
PARSONS        SUNNY     75  55  49 S9        30.20F
WICHITA INTL   PTSUNNY   82  51  34 S20G28    30.11F
WICHITA JABRA  SUNNY     79  52  38 S20G30    30.12F
WICHITA MCCONL SUNNY     79  51  36 S21       30.13F
WINFIELD       SUNNY     77  55  46 SE15      30.16F
$$

KSZ007>012-019>026-033>040-048>060-102>105-232000-
NORTHEAST KANSAS

CITY           SKY/WX    TMP DP  RH WIND       PRES   REMARKS
CONCORDIA      CLOUDY    61  59  93 SE9       30.10F
EMPORIA        MOSUNNY   74  56  53 S17G28    30.16F
LAWRENCE       MOSUNNY   74  54  49 S16       30.19F
MANHATTAN      CLOUDY    71  57  61 SE10G17   30.12F
MARYSVILLE     CLOUDY    59  59 100 S5        30.14F
OLATHE IND     PTSUNNY   72  56  57 SE10      30.21F
OLATHE EXE     PTSUNNY   72  54  53 S12       30.21S
SALINA         CLOUDY    66  58  75 SE16      30.08F
TOPEKA BILLARD PTSUNNY   75  53  46 S15       30.17F
TOPEKA FORBES  PTSUNNY   73  52  47 S17       30.17F
$$



USA.gov is the U.S. government's official web portal to all federal, state and local government web resources and services.